Wind_Speed
14 17 18 16 19 24 26 28 32 26 22 17 23 25 27 25 28 32 26 25 27 28 30 20 33 39 46 47 36 32 37 42 31 22 34 58 54 46 44 35 37 37 36 36
16 21 18 20 21 24 25 26 27 28 26 26 26 27 26 26 28 27 31 31 27 27 26 28 19 30 40 40 36 30 32 30 30 28 25 28 53 67 44 35 37 44 34 34
20 21 20 22 21 23 25 26 27 28 26 27 28 32 28 30 30 31 32 31 28 26 28 30 34 25 32 42 33 31 28 39 49 31 25 28 29 59 53 49 40 34 32 38
24 21 23 23 24 21 29 24 26 25 26 27 24 22 30 32 35 28 37 35 31 28 27 30 36 38 36 38 35 39 36 33 40 53 42 37 31 35 58 59 43 35 39 36
29 24 22 25 22 21 29 23 22 24 25 23 29 26 33 27 26 22 21 26 26 26 25 28 30 37 35 34 37 38 32 34 39 41 53 52 36 30 38 43 48 39 52 45
30 27 28 31 29 24 21 21 21 23 25 22 34 30 35 33 33 31 31 24 23 20 21 19 17 18 21 22 24 29 28 32 36 41 43 42 44 40 36 35 43 46 32 43
31 31 28 28 32 30 26 23 19 19 17 17 35 17 34 32 30 18 28 20 21 19 15 16 15 13 14 12 14 18 20 27 32 38 40 41 39 48 45 42 40 37 43 44
29 29 23 26 12 27 28 29 24 18 13 17 20 8 23 12 19 12 14 19 20 18 13 18 14 14 13 14 15 16 14 20 23 28 36 41 46 45 45 46 41 45 47 45
27 29 21 21 21 13 18 29 27 24 26 20 30 27 26 23 10 18 17 17 18 19 18 17 17 12 14 14 18 19 19 19 17 19 23 26 34 42 47 52 53 51 53 54
24 32 25 25 20 17 29 26 18 11 4 12 16 23 21 14 23 20 21 18 17 16 16 15 13 16 18 17 17 19 17 15 13 21 20 21 24 28 34 43 50 52 58 59
15 23 25 20 23 26 17 24 29 22 19 7 10 17 5 4 6 25 19 18 18 17 16 14 16 17 16 16 18 17 17 17 19 19 21 22 22 24 26 30 34 39 46 52
18 11 19 26 24 25 23 24 16 11 11 15 16 22 21 15 14 10 15 17 14 16 17 16 17 17 16 17 18 20 20 23 22 21 25 23 25 26 26 25 27 32 35 38
11 13 20 21 13 12 18 24 22 20 27 26 16 27 19 9 1 17 18 18 18 17 19 20 18 17 17 17 17 18 22 23 16 23 29 31 31 32 30 28 28 28 29 34
18 17 19 22 27 25 13 17 23 22 19 14 25 34 26 19 17 27 25 27 25 21 21 21 20 20 23 25 19 22 23 23 23 25 28 30 32 33 32 30 30 32 30 30
11 17 19 24 26 28 30 29 26 29 29 26 30 29 28 23 28 18 25 27 34 30 25 26 20 21 20 19 21 23 25 30 31 30 31 33 33 34 36 35 33 32 33 31
17 24 22 29 27 27 31 29 28 29 30 34 36 40 30 30 29 28 29 31 37 24 29 16 21 20 21 21 26 29 32 36 41 47 43 39 37 35 36 38 35 34 34 33
15 16 18 23 18 23 23 22 22 24 26 23 28 34 27 23 28 28 32 32 27 20 23 45 21 22 28 35 38 44 49 51 54 57 54 51 50 47 41 39 41 37 35 34
15 15 16 23 21 14 10 16 17 21 22 14 18 22 18 35 31 30 16 34 24 25 21 20 24 32 40 46 50 53 56 59 60 62 65 61 55 53 52 47 43 41 38 35
13 13 12 8 15 23 28 14 15 16 15 11 14 17 17 16 22 13 15 18 23 25 30 35 37 42 48 51 56 57 56 56 62 64 62 62 61 61 57 53 44 40 39 40
14 15 14 11 7 7 10 16 17 18 17 9 20 24 26 28 31 32 33 37 37 39 41 46 48 53 57 60 57 57 59 59 58 52 51 51 47 48 47 47 42 38 40 42
14 12 16 16 13 12 13 19 25 13 18 28 33 34 39 37 37 48 45 46 48 51 51 52 53 51 48 53 55 54 57 49 42 41 41 40 34 35 39 37 39 39 41 39
8 8 6 10 9 9 18 25 23 31 41 40 39 41 43 43 45 50 53 54 56 57 57 55 53 53 51 54 55 53 42 35 36 35 34 31 24 34 36 35 36 35 34 35
6 10 11 10 14 23 29 25 38 42 34 35 40 42 40 50 48 46 51 53 54 54 53 48 46 46 44 40 36 36 30 30 31 29 25 22 23 24 27 26 27 31 33 32
11 15 18 25 16 27 33 39 34 37 38 35 40 38 40 50 52 53 53 48 39 36 34 32 32 32 34 31 29 29 27 28 27 24 21 20 20 22 23 25 28 30 32 35
20 26 26 31 26 33 35 28 36 40 38 39 39 43 49 52 51 45 39 34 30 27 25 24 27 29 26 25 24 24 24 21 22 22 24 19 26 30 26 26 28 30 31 35
16 23 27 35 40 31 34 35 39 37 37 41 46 53 52 45 44 39 33 31 31 29 24 26 28 28 23 20 21 20 21 20 19 20 16 11 15 23 23 25 32 33 31 34
Wind_Direction
257 261 257 261 261 263 267 267 274 276 273 286 247 247 252 255 251 245 241 237 241 246 248 235 236 241 249 247 257 250 258 252 258 249 235 222 223 224 230 241 244 253 258 247
263 256 260 268 271 268 268 270 271 272 266 267 265 258 254 258 255 250 241 240 240 241 239 221 224 236 245 242 252 246 249 240 243 250 242 246 242 236 240 248 241 247 251 254
263 270 272 274 275 274 265 264 269 271 270 261 258 258 257 259 253 248 241 239 245 243 241 231 225 240 246 251 243 231 234 234 239 253 250 250 253 232 227 237 223 241 255 256
267 273 274 275 272 269 269 265 265 266 264 265 258 268 259 264 251 258 237 237 241 245 244 233 228 229 241 249 247 244 246 238 237 240 252 260 260 251 227 229 225 240 241 257
267 271 269 274 267 269 268 267 273 282 275 277 257 264 266 267 264 253 228 228 233 227 226 231 236 243 240 248 247 255 256 245 242 241 239 250 256 246 243 239 244 248 246 245
269 269 267 267 266 261 266 266 272 272 277 270 261 259 267 263 257 256 233 217 215 222 220 221 237 248 238 263 262 259 251 243 236 236 235 240 245 251 248 248 243 247 260 245
277 279 278 269 260 260 253 253 258 251 247 258 260 302 271 262 250 269 191 196 196 205 211 223 219 247 278 279 287 290 244 238 236 234 232 228 237 242 252 251 252 248 247 244
278 292 293 280 304 264 255 267 243 254 258 259 257 266 252 345 223 209 210 204 200 209 213 216 223 223 227 244 271 267 244 250 240 240 239 231 229 237 234 237 240 246 249 254
289 280 293 296 285 277 267 249 268 268 269 277 266 267 281 276 265 209 205 188 196 212 217 213 218 233 242 244 238 242 261 254 256 250 248 245 240 238 237 236 234 233 240 243
282 292 279 289 296 281 248 265 280 235 241 246 262 252 241 256 252 248 208 218 222 212 213 223 237 245 248 258 261 269 281 286 275 271 263 254 255 254 250 243 241 239 237 242
284 281 285 286 273 279 255 244 256 278 249 259 283 281 322 259 215 219 227 222 217 216 221 247 254 253 251 258 263 260 264 262 275 287 284 273 264 260 261 264 260 253 248 246
299 278 280 286 282 276 276 271 270 221 289 268 259 255 279 282 218 196 222 209 214 226 242 248 262 262 255 256 251 255 263 263 253 261 270 275 271 267 267 268 267 265 265 258
284 288 314 313 289 288 304 297 299 280 262 236 242 271 274 270 236 231 243 242 244 258 253 255 256 250 256 257 256 258 261 266 258 250 252 260 268 267 271 272 272 272 268 262
283 284 276 274 282 300 271 281 301 288 265 260 259 277 282 258 266 264 247 222 244 247 257 257 247 247 257 269 260 257 256 260 261 260 264 269 271 271 275 273 271 273 274 271
275 283 285 282 281 284 287 288 281 277 281 275 274 272 276 287 294 283 241 259 260 256 263 254 252 256 259 260 265 276 279 283 276 261 259 268 271 274 273 271 266 266 270 270
279 279 285 283 284 283 283 283 276 271 267 268 269 267 271 273 273 268 273 283 280 259 259 244 260 250 255 261 260 257 257 262 266 272 274 274 272 274 274 272 266 259 262 263
274 286 293 285 291 299 283 280 279 278 281 275 283 274 275 289 272 268 262 256 257 260 277 256 275 253 255 257 258 261 264 266 269 273 276 271 271 270 264 266 264 259 255 256
261 269 276 280 296 284 280 313 297 291 291 289 281 296 277 260 278 256 289 267 268 269 259 252 248 249 255 261 263 265 264 266 268 269 270 273 271 266 265 259 258 256 255 249
245 250 265 261 263 280 302 297 329 314 318 318 310 326 324 311 301 330 251 305 277 274 263 256 257 264 268 270 275 277 276 278 281 277 273 272 267 261 257 257 251 247 248 244
230 227 239 274 274 279 293 338 312 300 287 329 331 316 305 300 306 287 279 267 268 271 277 279 277 276 273 273 277 278 281 283 284 277 274 272 267 256 246 242 238 236 236 239
210 234 236 259 258 270 297 317 309 310 309 305 304 304 304 301 291 288 285 285 286 283 282 286 290 287 283 280 277 278 281 281 281 276 270 263 253 247 223 225 223 229 232 233
276 246 250 255 246 264 323 325 336 308 307 304 303 302 298 292 289 289 290 291 289 288 285 281 277 275 272 271 275 278 276 278 278 274 265 253 252 217 220 218 228 233 233 236
339 326 306 299 274 292 294 310 312 306 300 303 301 304 297 298 295 291 288 287 286 287 283 280 276 273 272 272 271 269 270 274 276 269 252 243 236 222 221 227 231 232 228 220
310 305 301 298 298 302 302 310 307 305 302 300 299 303 298 299 295 290 291 293 292 286 282 277 275 275 277 277 272 262 264 273 272 254 238 225 225 221 219 220 226 228 216 212
294 301 303 300 306 298 309 318 323 313 314 310 311 307 303 300 296 293 294 295 295 288 282 275 274 274 273 273 256 256 265 265 260 238 257 245 227 222 222 234 222 211 212 206
301 307 312 307 316 314 322 325 324 320 317 316 314 311 307 300 297 292 288 289 290 290 276 275 273 272 270 262 258 247 256 252 249 236 269 215 214 216 227 222 197 199 193 192
Height
3087 3087 3084 3084 3083 3081 3080 3077 3073 3072 3071 3070 3069 3070 3073 3075 3077 3076 3077 3079 3082 3083 3087 3093 3090 3086 3084 3091 3092 3097 3102 3107 3108 3110 3112 3118 3124 3125 3133 3136 3139 3142 3146 3150
3085 3081 3081 3080 3079 3077 3075 3073 3071 3070 3070 3069 3066 3065 3068 3070 3068 3069 3071 3073 3075 3078 3081 3084 3084 3081 3078 3082 3085 3090 3094 3098 3102 3105 3106 3113 3119 3118 3123 3127 3131 3135 3138 3140
3079 3077 3076 3075 3074 3073 3071 3070 3070 3068 3065 3063 3061 3059 3062 3063 3063 3062 3063 3066 3068 3071 3073 3076 3078 3075 3074 3073 3080 3083 3085 3088 3092 3097 3101 3105 3106 3106 3112 3120 3121 3129 3130 3134
3075 3074 3072 3070 3069 3070 3067 3067 3065 3063 3062 3057 3057 3050 3052 3053 3051 3051 3053 3058 3061 3065 3067 3068 3068 3068 3066 3068 3071 3073 3079 3080 3081 3089 3093 3097 3098 3099 3106 3110 3111 3114 3121 3129
3070 3069 3068 3065 3066 3066 3062 3063 3060 3058 3055 3054 3052 3052 3044 3048 3045 3045 3047 3050 3054 3057 3057 3059 3058 3059 3061 3061 3062 3062 3066 3070 3075 3075 3082 3088 3094 3095 3099 3099 3102 3110 3117 3118
3065 3065 3063 3060 3059 3059 3059 3058 3058 3056 3054 3050 3046 3047 3039 3041 3039 3038 3038 3041 3047 3050 3051 3054 3054 3054 3055 3055 3055 3055 3059 3061 3066 3070 3073 3077 3084 3088 3093 3094 3097 3102 3104 3108
3057 3056 3057 3056 3049 3053 3054 3054 3051 3049 3046 3044 3042 3042 3032 3033 3030 3029 3028 3035 3041 3045 3049 3050 3052 3052 3050 3051 3050 3049 3051 3054 3058 3062 3066 3068 3072 3079 3083 3087 3091 3093 3096 3100
3053 3050 3049 3047 3044 3047 3046 3048 3042 3040 3036 3033 3032 3036 3028 3022 3027 3028 3028 3031 3037 3042 3046 3047 3050 3049 3050 3050 3048 3047 3048 3047 3051 3053 3056 3058 3061 3066 3070 3077 3080 3084 3087 3091
3048 3046 3046 3043 3040 3044 3043 3043 3045 3034 3033 3028 3026 3026 3025 3023 3023 3025 3028 3030 3033 3035 3040 3042 3043 3045 3046 3046 3045 3043 3042 3042 3043 3045 3047 3049 3051 3056 3060 3065 3067 3070 3077 3081
3045 3037 3041 3041 3039 3040 3038 3038 3040 3037 3035 3029 3018 3016 3018 3022 3022 3023 3025 3028 3030 3032 3035 3037 3040 3041 3041 3041 3040 3038 3038 3036 3037 3038 3041 3042 3043 3046 3050 3053 3056 3057 3061 3068
3042 3040 3038 3036 3035 3033 3032 3031 3032 3027 3025 3024 3021 3017 3016 3018 3016 3020 3023 3026 3028 3030 3031 3033 3034 3035 3036 3036 3035 3035 3034 3034 3034 3033 3033 3034 3036 3039 3041 3042 3042 3047 3053 3055
3038 3035 3034 3032 3030 3031 3028 3029 3025 3027 3025 3022 3024 3016 3019 3016 3017 3018 3020 3023 3025 3025 3026 3028 3027 3027 3029 3029 3029 3028 3028 3028 3028 3029 3029 3027 3027 3028 3031 3034 3036 3038 3040 3043
3036 3034 3030 3026 3024 3023 3024 3024 3024 3020 3022 3014 3026 3006 3015 3015 3013 3017 3018 3020 3021 3021 3021 3021 3020 3020 3021 3021 3021 3021 3020 3019 3020 3021 3019 3018 3019 3019 3022 3026 3027 3029 3031 3032
3032 3032 3032 3029 3025 3024 3021 3019 3016 3016 3011 3009 3009 3005 3008 3007 3010 3011 3011 3010 3011 3011 3014 3014 3011 3011 3011 3012 3014 3012 3012 3011 3011 3010 3010 3008 3009 3011 3014 3015 3017 3018 3020 3021
3029 3027 3027 3023 3021 3019 3016 3013 3010 3006 3003 3003 3002 3004 3003 3003 3000 3002 3005 3006 3005 3006 3003 3007 3003 3003 3005 3005 3005 3005 3004 3002 3001 2999 2998 2998 2998 2999 3001 3004 3007 3008 3010 3012
3027 3023 3022 3018 3017 3014 3009 3007 3005 3002 3000 2998 2996 2992 2998 2998 2999 2999 2997 2996 2998 2995 2998 2997 2999 2994 2997 2997 2996 2995 2993 2992 2990 2988 2989 2989 2990 2990 2991 2992 2997 2999 3000 3003
3023 3021 3020 3014 3012 3008 3004 2998 2998 2996 2995 2993 2989 2987 2986 2987 2991 2990 2988 2986 2989 2986 2985 2983 2981 2986 2984 2982 2982 2981 2980 2979 2978 2976 2976 2977 2977 2978 2982 2983 2984 2988 2991 2993
3020 3020 3019 3014 3013 3006 2997 2994 2993 2990 2986 2986 2987 2980 2982 2981 2978 2976 2978 2980 2973 2978 2972 2976 2974 2972 2970 2969 2969 2967 2966 2964 2963 2961 2959 2960 2962 2962 2965 2970 2973 2976 2979 2982
3017 3017 3015 3013 3008 3001 2994 2990 2992 2989 2989 2983 2981 2980 2977 2977 2974 2974 2979 2963 2967 2967 2966 2964 2963 2959 2957 2957 2954 2950 2948 2948 2945 2942 2940 2940 2941 2942 2948 2952 2960 2965 2967 2970
3011 3011 3013 3010 3008 3000 2994 2990 2988 2985 2982 2980 2979 2976 2971 2967 2963 2963 2963 2960 2958 2956 2954 2951 2949 2946 2943 2941 2938 2933 2929 2928 2925 2923 2921 2920 2921 2923 2928 2935 2945 2951 2955 2959
3006 3007 3007 3006 3004 2998 2993 2988 2983 2984 2983 2975 2974 2970 2965 2962 2960 2950 2948 2945 2944 2942 2939 2937 2932 2928 2926 2924 2919 2916 2913 2912 2911 2908 2906 2905 2905 2907 2915 2920 2930 2936 2941 2948
3006 3003 3002 3000 2998 2995 2990 2985 2987 2982 2975 2971 2966 2960 2955 2951 2946 2940 2935 2930 2927 2923 2920 2918 2914 2911 2910 2907 2904 2901 2899 2902 2898 2895 2893 2893 2896 2899 2906 2912 2918 2925 2932 2938
3005 3004 2999 3001 2995 2993 2987 2984 2980 2974 2967 2962 2957 2951 2945 2938 2931 2925 2919 2914 2910 2907 2903 2901 2898 2894 2892 2892 2891 2889 2890 2890 2887 2885 2885 2888 2891 2894 2900 2907 2912 2918 2923 2930
3004 3000 2998 2995 2993 2987 2982 2978 2972 2965 2958 2953 2947 2939 2933 2924 2918 2910 2904 2899 2895 2891 2887 2886 2883 2881 2880 2881 2880 2880 2881 2880 2879 2878 2881 2884 2887 2891 2896 2900 2905 2910 2915 2923
3000 2997 2993 2989 2987 2979 2978 2972 2963 2955 2949 2941 2934 2928 2919 2909 2901 2896 2890 2887 2883 2879 2877 2875 2873 2871 2871 2871 2871 2874 2873 2873 2872 2871 2873 2876 2879 2885 2890 2893 2897 2902 2910 2918
2997 2994 2990 2982 2980 2973 2967 2961 2954 2945 2938 2931 2921 2910 2903 2894 2886 2883 2880 2877 2873 2870 2868 2866 2863 2862 2863 2863 2862 2865 2865 2866 2866 2868 2868 2874 2877 2881 2883 2886 2892 2898 2906 2917